Location: Bathurst
(33.4193°S, 149.5775°E)
Time: 04:35:34
(UTC+11:00)

Hubble Space Telescope - Visible Passes

Search period start: 28 January 2021 00:00
Search period end: 07 February 2021 00:00
Orbit: 536 x 539 km, 28.5° (Epoch: 27 January)

Date Brightness Start Highest point End Pass type
(mag) Time Alt. Az. Time Alt. Az. Time Alt. Az.
28 Jan 1.3 04:32:21 41° N 04:32:21 41° N 04:36:11 10° ENE visible
29 Jan 1.6 04:22:13 37° NNE 04:22:13 37° NNE 04:25:20 10° ENE visible
30 Jan 2.2 04:12:12 27° NE 04:12:12 27° NE 04:14:28 10° ENE visible
30 Jan 1.9 05:47:48 10° WNW 05:51:22 27° NNW 05:54:55 10° NE visible
31 Jan 2.9 04:02:17 18° ENE 04:02:17 18° ENE 04:03:34 10° ENE visible
31 Jan 2.1 05:37:38 13° WNW 05:40:28 24° NNW 05:43:49 10° NE visible
01 Feb 3.5 03:52:32 11° ENE 03:52:32 11° ENE 03:52:40 10° ENE visible
01 Feb 2.2 05:27:53 16° NW 05:29:33 20° NNW 05:32:39 10° NNE visible
02 Feb 2.4 05:18:19 17° NNW 05:18:37 17° NNW 05:21:21 10° NNE visible
03 Feb 2.9 05:08:53 13° N 05:08:53 13° N 05:09:53 10° N visible
05 Feb 3.2 21:48:50 10° NNW 21:49:09 11° NNW 21:49:09 11° NNW visible
06 Feb 2.5 21:37:38 10° NW 21:39:34 19° NNW 21:39:34 19° NNW visible
